Вернуться в каталог

COSMOS 507

АктивенВоенныеLEO
NORAD 6120·PAYLOAD·🇷🇺 Russia

Запущен Jul 20, 1972 с Plesetsk Cosmodrome

Loading…

Ближайшие Пролёты (ближайшие 24 часа)

TLE

СвежийSource: Space-Track

Эпоха: Sep 14, 2026, 06:42 UTC

1 06120U 72057D   26257.27978225 -.00000022  00000-0 -37459-4 0  9992
2 06120  74.0244  88.7698 0053596 112.3181 358.5336 12.52658051476110

Отслеживайте COSMOS 507 в реальном времени с AllMySat

Download on the App Store